FlightSource - Aviation Photo Database

World Wide Airport Lookup


Search by ICAO
Or
Search by City

FlightSource.ca - Aviation Photo Database - Prince George Airport Information
Airport Identification
Name: Prince George Airport
ICAO: CYXS
IATA: YXS
Airport Location
City: Prince George
Region: BC
Country: Canada
Continent: North America
Latitude: 53.8894
Longitude: -122.679
Airport Information
Type: Medium Airport
Elevation: 2267 Feet ASL
Flight Status: CYXS
More Info: CYXS
Airport Weather    
Metar: CYXS 300422Z AUTO 31005KT 6SM -RA BR FEW006 SCT021 BKN026 OVC033 03/03 A2966 RMK SLP071
TAF:


Advertisement